EW3994 Weather Reports


Display with metric or nautical units.
time (UTC)temp
F
wind
direction
speed
MPH
gust
MPH
rain 1hr
in
rain 24hr
in
rain mn
in
humidity
%
barometer
mb
20260904093922 65 19 7.0 15.0 0.00 0.13 0.13 58 1008.7
20260904093025 65 16 5.0 11.0 0.00 0.13 0.13 58 1008.5
20260904092122 65 20 6.0 11.0 0.00 0.13 0.13 58 1008.4
20260904091222 65 20 8.0 15.0 0.00 0.13 0.13 58 1008.3
20260904085422 65 30 7.0 12.0 0.00 0.13 0.13 58 1008.4
20260904084522 65 38 5.0 10.0 0.00 0.13 0.13 58 1008.5
20260904082722 66 73 4.0 8.0 0.00 0.13 0.13 59 1008.5
20260904081822 66 76 3.0 7.0 0.00 0.13 0.13 58 1008.4
20260904080922 66 79 4.0 8.0 0.00 0.13 0.13 58 1008.5
20260904080022 66 72 4.0 9.0 0.00 0.13 0.13 57 1008.5
20260904075122 67 49 5.0 9.0 0.00 0.13 0.13 57 1008.4
20260904074222 67 46 5.0 9.0 0.00 0.13 0.13 57 1008.6
20260904071522 67 45 6.0 12.0 0.00 0.13 0.13 56 1008.8
20260904070622 68 49 5.0 11.0 0.00 0.13 0.13 56 1008.8
20260904065722 68 40 7.0 13.0 0.00 0.13 0.13 55 1009.0
20260904064822 68 23 5.0 12.0 0.00 0.13 0.13 56 1009.0
20260904063922 67 2 6.0 15.0 0.00 0.13 0.13 55 1009.0
20260904063022 68 8 6.0 15.0 0.00 0.13 0.13 53 1009.1
20260904060322 68 34 8.0 14.0 0.00 0.14 0.13 52 1009.3
20260904055422 68 29 9.0 15.0 0.00 0.14 0.13 52 1009.4
20260904054522 68 36 9.0 16.0 0.00 0.14 0.13 52 1009.3
20260904052722 68 51 7.0 13.0 0.00 0.14 0.13 53 1009.5
20260904051822 67 32 6.0 12.0 0.00 0.14 0.13 54 1009.8
20260904050922 66 39 7.0 13.0 0.00 0.14 0.13 54 1010.1
20260904045122 65 54 5.0 12.0 0.00 0.14 0.13 56 1010.2
20260904044222 64 59 5.0 10.0 0.00 0.14 0.13 57 1010.3
20260904043322 64 61 4.0 9.0 0.00 0.14 0.13 57 1010.5
20260904042422 64 71 4.0 11.0 0.00 0.14 0.13 57 1010.6
20260904041522 64 57 4.0 11.0 0.00 0.14 0.13 56 1010.6
20260904040622 63 49 5.0 10.0 0.00 0.14 0.13 56 1010.9
20260904035722 63 39 8.0 13.0 0.00 0.14 0.13 56 1011.1
20260904034822 64 32 8.0 14.0 0.00 0.14 0.13 55 1011.3
20260904033022 64 32 8.0 16.0 0.01 0.14 0.13 56 1011.6
20260904032121 65 35 7.0 14.0 0.04 0.14 0.13 57 1011.9
20260904031221 63 42 8.0 15.0 0.06 0.14 0.13 59 1012.1
20260904030322 62 66 5.0 10.0 0.08 0.14 0.13 65 1012.4
20260904023621 57 82 6.0 13.0 0.12 0.13 0.13 64 1013.1
20260904022722 57 50 8.0 14.0 0.11 0.13 0.12 64 1013.7
20260904021822 57 65 6.0 14.0 0.09 0.09 0.09 64 1014.2
20260904020021 58 25 6.0 12.0 0.05 0.06 0.05 64 1015.5
20260904015121 57 44 6.0 13.0 0.04 0.05 0.04 62 1014.1
20260904014221 58 37 9.0 15.0 0.02 0.03 0.02 61 1014.6
20260903221248 57 41 4.0 10.0 0.00 0.02 0.00 59 1016.2
20260903220348 57 61 3.0 9.0 0.00 0.02 0.00 60 1016.1
20260903214548 56 51 5.0 11.0 0.00 0.02 0.00 60 1015.8
20260903213648 56 39 6.0 9.0 0.00 0.02 0.00 60 1015.9
20260903212748 56 69 5.0 11.0 0.00 0.02 0.00 60 1015.5
20260903210948 56 71 5.0 10.0 0.00 0.02 0.00 61 1015.5
20260903210048 56 68 6.0 10.0 0.00 0.02 0.00 61 1015.5
20260903205148 56 66 6.0 11.0 0.00 0.02 0.00 61 1015.7
20260903204248 56 59 5.0 13.0 0.00 0.02 0.00 61 1015.9
20260903203348 55 61 5.0 11.0 0.00 0.02 0.00 62 1016.0
20260903202448 55 64 7.0 12.0 0.00 0.02 0.00 62 1015.9
20260903201549 55 64 5.0 12.0 0.00 0.02 0.00 62 1016.2
20260903200648 55 58 5.0 9.0 0.00 0.02 0.00 62 1016.4
20260903195747 55 61 4.0 9.0 0.00 0.02 0.00 62 1016.3
20260903194848 55 58 6.0 12.0 0.00 0.02 0.00 62 1016.4
20260903193948 55 60 7.0 11.0 0.00 0.02 0.00 62 1016.4
20260903193048 55 48 7.0 12.0 0.00 0.02 0.00 62 1016.7
20260903192148 54 39 7.0 12.0 0.00 0.02 0.00 62 1016.8
20260903191248 54 39 5.0 10.0 0.00 0.02 0.00 62 1016.9
20260903190347 54 51 4.0 10.0 0.00 0.02 0.00 62 1016.9
20260903184547 54 90 4.0 9.0 0.00 0.02 0.00 61 1016.3
20260903183647 54 85 4.0 7.0 0.00 0.02 0.00 60 1016.7
20260903182747 54 104 5.0 9.0 0.00 0.02 0.00 60 1016.5
20260903181850 55 99 4.0 9.0 0.00 0.02 0.00 60 1016.8
20260903180947 55 74 3.0 6.0 0.00 0.02 0.00 59 1017.4
20260903180047 55 60 3.0 6.0 0.00 0.02 0.00 59 1017.7
20260903175147 55 68 2.0 4.0 0.00 0.02 0.00 58 1017.6
20260903174248 55 88 3.0 7.0 0.00 0.02 0.00 58 1017.7
20260903173347 56 90 2.0 6.0 0.00 0.02 0.00 58 1017.6
20260903172447 56 46 2.0 4.0 0.00 0.02 0.00 57 1018.1
20260903171547 56 34 3.0 6.0 0.00 0.02 0.00 57 1018.4
20260903170647 56 53 2.0 4.0 0.00 0.02 0.00 57 1018.3
20260903165747 56 62 2.0 3.0 0.00 0.02 0.00 57 1018.4
20260903164847 56 62 1.0 3.0 0.00 0.02 0.00 57 1018.4
20260903163947 56 60 2.0 4.0 0.00 0.02 0.00 57 1018.4
20260903163047 56 48 2.0 3.0 0.00 0.02 0.00 56 1018.7
20260903162147 56 65 1.0 4.0 0.00 0.02 0.00 56 1018.8
20260903160348 56 64 3.0 6.0 0.00 0.02 0.00 56 1018.5
20260903155447 56 76 3.0 6.0 0.00 0.02 0.00 56 1018.6
20260903154547 56 75 3.0 5.0 0.00 0.02 0.00 56 1018.6
20260903152747 56 53 2.0 4.0 0.00 0.02 0.00 55 1019.0
20260903151848 56 42 2.0 4.0 0.00 0.02 0.00 55 1019.1
20260903150947 56 5 1.0 4.0 0.00 0.02 0.00 55 1019.2
20260903150047 56 346 1.0 2.0 0.00 0.02 0.00 54 1019.3
20260903145150 56 6 1.0 3.0 0.00 0.02 0.00 54 1019.4
20260903144247 56 88 1.0 3.0 0.00 0.02 0.00 54 1019.6
20260903143347 56 87 2.0 3.0 0.00 0.02 0.00 54 1019.7
20260903142447 56 89 2.0 6.0 0.00 0.02 0.02 54 1019.7
20260903141547 56 80 2.0 4.0 0.00 0.02 0.02 54 1019.8
20260903140648 56 83 1.0 3.0 0.00 0.02 0.02 54 1019.9
20260903135748 56 92 2.0 4.0 0.00 0.02 0.02 54 1019.9
20260903133947 56 89 1.0 4.0 0.00 0.02 0.02 54 1020.2
20260903132147 57 79 1.0 3.0 0.00 0.02 0.02 54 1020.4
20260903131247 57 75 1.0 3.0 0.00 0.02 0.02 54 1020.4
20260903130348 57 74 2.0 3.0 0.00 0.02 0.02 54 1020.4
20260903124547 57 88 2.0 4.0 0.00 0.02 0.02 54 1020.5
20260903123647 57 103 2.0 4.0 0.00 0.02 0.02 54 1020.5
20260903122746 57 121 2.0 3.0 0.00 0.02 0.02 54 1020.6
20260903120947 57 119 2.0 6.0 0.00 0.02 0.02 53 1020.8
20260903115147 57 152 1.0 4.0 0.00 0.02 0.02 53 1020.9
20260903114247 57 164 1.0 2.0 0.00 0.02 0.02 53 1020.9
20260903113347 57 164 1.0 5.0 0.00 0.02 0.02 53 1020.9
20260903112446 57 164 1.0 2.0 0.00 0.02 0.02 53 1020.8
20260903111546 57 164 1.0 4.0 0.00 0.02 0.02 53 1020.7
20260903110646 57 166 1.0 4.0 0.00 0.02 0.02 53 1020.7
20260903105747 57 192 1.0 3.0 0.00 0.02 0.02 53 1020.6
20260903104847 57 192 2.0 3.0 0.00 0.02 0.02 53 1020.4
20260903103947 57 201 2.0 3.0 0.00 0.02 0.02 53 1020.5
20260903103047 57 196 1.0 4.0 0.00 0.02 0.02 53 1020.3
20260903101246 58 210 3.0 6.0 0.00 0.02 0.02 53 1020.0
20260903095446 58 216 2.0 4.0 0.00 0.02 0.02 52 1019.8
20260903094546 58 194 2.0 5.0 0.00 0.02 0.02 53 1019.8